FW4586 Weather Reports


Display with metric or nautical units.
time (UTC)temp
F
wind
direction
speed
MPH
gust
MPH
rain 1hr
in
rain 24hr
in
rain mn
in
humidity
%
barometer
mb
20260508161516 48 351 2.0 9.0 0.00 0.77 0.01 82 1001.9
20260508160010 48 51 5.0 9.0 0.00 0.77 0.01 83 1001.8
20260508154532 48 19 4.0 10.0 0.00 0.77 0.01 85 1001.9
20260508153011 48 333 3.0 8.0 0.00 0.77 0.01 88 1001.9
20260508151511 46 150 1.0 5.0 0.00 0.77 0.01 90 1002.1
20260508150007 46 11 1.0 9.0 0.00 0.77 0.01 90 1002.3
20260508144506 47 254 3.0 6.0 0.00 0.77 0.01 90 1002.3
20260508143008 47 243 3.0 5.0 0.00 0.77 0.01 91 1002.3
20260508141505 46 263 2.0 5.0 0.00 0.77 0.01 92 1002.5
20260508140004 45 256 4.0 6.0 0.00 0.77 0.01 93 1002.8
20260508134504 46 256 3.0 7.0 0.00 0.77 0.01 93 1002.8
20260508133005 46 223 4.0 7.0 0.00 0.77 0.01 94 1002.6
20260508131612 48 287 1.0 5.0 0.00 0.77 0.01 95 1002.3
20260508130058 49 53 1.0 4.0 0.00 0.77 0.01 96 1002.0
20260508124602 46 20 3.0 7.0 0.00 0.77 0.01 96 1001.9
20260508123057 46 5 4.0 7.0 0.00 0.77 0.01 96 1002.0
20260508121555 45 264 1.0 2.0 0.00 0.77 0.01 95 1002.3
20260508120055 45 290 0.0 2.0 0.00 0.77 0.01 96 1002.2
20260508114555 44 31 0.0 3.0 0.00 0.77 0.01 96 1002.4
20260508113055 44 2 0.0 1.0 0.00 0.77 0.01 96 1002.5
20260508111556 44 342 0.0 2.0 0.00 0.77 0.01 97 1002.3
20260508110057 43 274 0.0 2.0 0.00 0.77 0.01 96 1002.8
20260508104552 42 340 0.0 0.0 0.00 0.77 0.01 97 1002.8
20260508103058 42 340 0.0 0.0 0.00 0.77 0.01 97 1002.7
20260508101550 41 340 0.0 0.0 0.00 0.77 0.01 97 1002.8
20260508100106 41 340 0.0 0.0 0.00 0.77 0.01 97 1002.4
20260508094602 40 283 0.0 0.0 0.00 0.77 0.01 97 1002.3
20260508093049 40 278 0.0 0.0 0.00 0.77 0.01 97 1002.4
20260508091549 40 278 0.0 2.0 0.00 0.77 0.01 96 1002.3
20260508090108 41 255 0.0 4.0 0.00 0.77 0.01 97 1002.0
20260508084547 41 262 0.0 2.0 0.00 0.77 0.01 97 1001.8
20260508083043 41 248 1.0 2.0 0.00 0.77 0.01 96 1001.6
20260508081559 41 121 0.0 1.0 0.00 0.77 0.01 96 1001.3
20260508080040 42 120 1.0 2.0 0.01 0.77 0.01 97 1001.5
20260508074540 42 56 0.0 2.0 0.01 0.77 0.01 96 1001.5
20260508073042 42 20 0.0 0.0 0.01 0.77 0.01 96 1001.8
20260508071535 43 32 0.0 0.0 0.01 0.77 0.01 96 1001.6
20260508070033 43 32 0.0 0.0 0.00 0.76 0.00 96 1001.9
20260508064535 43 32 0.0 0.0 0.00 0.76 0.00 96 1001.8
20260508063036 44 22 0.0 2.0 0.00 0.76 0.00 97 1001.7
20260508061536 44 60 1.0 3.0 0.00 0.76 0.00 97 1001.8
20260508060029 43 50 2.0 5.0 0.00 0.76 0.00 96 1001.8
20260508054534 43 34 5.0 7.0 0.00 0.76 0.00 96 1002.2
20260508053032 43 70 1.0 5.0 0.00 0.76 0.00 96 1002.5
20260508051525 43 37 2.0 5.0 0.00 0.76 0.00 96 1002.3
20260508050029 43 10 1.0 4.0 0.00 0.76 0.00 96 1002.3
20260508044523 43 9 2.0 6.0 0.00 0.76 0.00 96 1002.1
20260508043022 43 52 4.0 10.0 0.00 0.76 0.00 95 1002.0
20260508041521 44 252 0.0 2.0 0.00 0.76 0.00 96 1002.6
20260508040017 44 248 0.0 2.0 0.00 0.76 0.00 95 1002.5
20260508034516 45 222 0.0 2.0 0.00 0.76 0.00 95 1002.5
20260508033009 47 82 0.0 3.0 0.00 0.76 0.00 96 1002.3
20260508031506 48 231 0.0 0.0 0.00 0.76 0.00 95 1002.2
20260508030003 48 231 0.0 2.0 0.00 0.76 0.76 96 1002.1
20260508024502 48 86 0.0 5.0 0.00 0.76 0.76 96 1002.2
20260508023003 47 92 3.0 7.0 0.01 0.76 0.76 96 1002.1
20260508021501 46 309 0.0 2.0 0.02 0.76 0.76 95 1002.7
20260508020001 47 79 0.0 2.0 0.03 0.76 0.76 96 1002.5
20260508014600 47 183 0.0 2.0 0.03 0.76 0.76 96 1003.0
20260508013059 46 261 0.0 1.0 0.04 0.75 0.75 95 1002.8
20260508011606 47 260 0.0 1.0 0.04 0.74 0.74 95 1002.6
20260508010059 47 237 0.0 0.0 0.08 0.74 0.74 95 1002.6
20260508004602 47 247 0.0 0.0 0.10 0.73 0.73 95 1002.7
20260508003058 47 220 0.0 1.0 0.12 0.71 0.71 95 1002.7
20260508001559 46 164 3.0 8.0 0.13 0.70 0.70 95 1002.8
20260508000058 46 228 3.0 8.0 0.09 0.66 0.66 95 1002.9
20260507234558 45 200 8.0 15.0 0.06 0.63 0.63 95 1002.6
20260507233058 47 267 6.0 13.0 0.02 0.59 0.59 92 1002.3
20260507231549 48 218 7.0 14.0 0.00 0.56 0.56 91 1001.9
20260507230104 56 264 4.0 9.0 0.00 0.56 0.56 84 1001.3
20260507224551 56 231 5.0 15.0 0.00 0.56 0.56 83 1001.0
20260507223045 56 138 9.0 16.0 0.00 0.56 0.56 85 1000.9
20260507221546 56 111 7.0 15.0 0.00 0.56 0.56 84 1001.0
20260507220052 56 120 12.0 19.0 0.00 0.56 0.56 85 1000.7
20260507214544 55 123 13.0 24.0 0.00 0.56 0.56 85 1000.7
20260507213044 56 145 14.0 24.0 0.00 0.56 0.56 84 1000.6
20260507211544 56 141 14.0 25.0 0.00 0.56 0.56 85 1000.7
20260507210053 56 122 16.0 23.0 0.00 0.56 0.56 83 1000.7
20260507204541 56 110 13.0 23.0 0.02 0.56 0.56 85 1000.6
20260507203108 55 144 13.0 29.0 0.07 0.56 0.56 87 1000.7
20260507201540 55 117 18.0 36.0 0.13 0.56 0.56 87 1000.2
20260507200041 55 118 22.0 36.0 0.15 0.56 0.56 86 999.7
20260507194536 55 139 18.0 30.0 0.16 0.55 0.55 88 1000.9
20260507193035 55 161 13.0 19.0 0.14 0.49 0.49 88 1001.7
20260507191536 55 150 10.0 19.0 0.14 0.44 0.44 88 1002.8
20260507190030 55 152 10.0 27.0 0.18 0.42 0.42 88 1002.6
20260507184526 54 124 14.0 25.0 0.25 0.39 0.39 89 1003.1
20260507183024 54 140 13.0 23.0 0.32 0.35 0.35 90 1003.2
20260507181521 55 198 15.0 35.0 0.28 0.30 0.30 89 1003.5
20260507180022 55 204 17.0 30.0 0.24 0.24 0.24 90 1003.7
20260507174522 55 250 12.0 28.0 0.13 0.13 0.13 90 1004.1
20260507173018 56 209 20.0 34.0 0.03 0.03 0.03 87 1003.3
20260507171506 57 225 15.0 28.0 0.01 0.01 0.01 86 1002.4
20260507170006 59 218 21.0 36.0 0.00 0.00 0.00 82 1002.7
20260507164504 59 187 17.0 44.0 0.00 0.00 0.00 82 1002.6
20260507163002 60 226 23.0 46.0 0.00 0.00 0.00 77 1002.6